Home   Weather   Oradea   Past weeks

Flag for Romania Past Weather in Oradea, Romania — Yesterday and Last 2 Weeks

Now
10 °F

Ice fog.


Feels Like: 10 °F
Forecast: 19 / 32 °F
Wind: 2 mph from East

Location: Oradea Airport

Current Time: Jan 23, 2017 at 8:55:03 am

Latest Report: Jan 23, 2017 at 8:00 am


Visibility: 2 mi

Pressure: 30.45 "Hg

Humidity: 85%

Dew Point: 7 °F

Location of OradeaLocation

Past Weather in Oradea — Graph

°F

Oradea Temperature Yesterday

Maximum temperature yesterday: 25 °F (at 10:30 am)
Minimum temperature yesterday: 14 °F (at 12:00 am)
Average temperature yesterday: 21 °F

High & Low Weather Summary for the Past Weeks

 TemperatureHumidityPressure
High43 °F (Jan 13, 9:00 pm)100% (Jan 13, 11:00 pm)30.66 "Hg (Jan 13, 11:00 pm)
Low5 °F (Jan 8, 7:00 am)42% (Jan 9, 3:30 pm)29.36 "Hg (Jan 14, 2:00 am)
Average23 °F81%30.20 "Hg
* Reported Jan 8 7:00 am — Jan 23 7:30 am, Oradea, Weather by CustomWeather, © 2017

Note: Actual official high and low records may vary slightly from our data, if they occured in-between our weather recording intervals... More about our weather records

Advertising

Oradea Weather History for the Previous 24 Hours

Scroll right to see more
 ConditionsComfort  
Time TempWeatherWind HumidityBarometerVisibility
7:30 am
Mon, Jan 23
10 °FIce fog.1 mph85%30.45 "Hg1 mi
7:00 am10 °FIce fog.No wind92%30.45 "Hg1 mi
6:30 am10 °FIce fog.No wind92%30.45 "Hg1 mi
6:00 am10 °FIce fog.No wind92%30.45 "Hg1 mi
5:30 am10 °FIce fog.5 mph92%30.48 "Hg2 mi
5:00 am12 °FIce fog.1 mph92%30.48 "Hg2 mi
4:30 am16 °FIce fog.5 mph86%30.48 "Hg2 mi
4:00 am14 °FIce fog.5 mph92%30.48 "Hg2 mi
3:30 am14 °FIce fog.5 mph92%30.48 "Hg2 mi
3:00 am16 °FIce fog.5 mph86%30.48 "Hg2 mi
2:30 am16 °FIce fog.5 mph93%30.51 "Hg1 mi
2:00 am16 °FIce fog.5 mph93%30.51 "Hg1 mi
1:30 am16 °FIce fog.3 mph93%30.51 "Hg1 mi
1:00 am16 °FCold.5 mph93%30.51 "Hg1 mi
12:30 am16 °FCold.5 mph93%30.51 "Hg1 mi
12:00 am16 °FIce fog.5 mph93%30.51 "Hg1 mi
11:30 pm
Sun, Jan 22
16 °FIce fog.5 mph93%30.51 "Hg1 mi
11:00 pm18 °FIce fog.5 mph93%30.54 "Hg1 mi
10:30 pm14 °FCold.2 mph92%30.54 "Hg1 mi
10:00 pm16 °FIce fog.3 mph86%30.54 "Hg1 mi
9:30 pm16 °FIce fog.No wind93%30.54 "Hg1 mi
9:00 pm16 °FIce fog.No wind93%30.54 "Hg0 mi
8:30 pm16 °FIce fog.No wind86%30.54 "Hg0 mi
8:00 pm16 °FIce fog.No wind93%30.54 "Hg0 mi
7:30 pm16 °FIce fog.No wind93%30.54 "Hg1 mi
7:00 pm14 °FIce fog.No wind92%30.54 "Hg1 mi
6:30 pm18 °FIce fog.No wind93%30.54 "Hg1 mi
6:00 pm19 °FIce fog.No wind93%30.54 "Hg1 mi
5:30 pm21 °FIce fog.3 mph93%30.54 "Hg1 mi
5:00 pm21 °FIce fog.2 mph93%30.54 "Hg1 mi
4:30 pm23 °FIce fog.2 mph86%30.54 "Hg1 mi
4:00 pm25 °FIce fog.5 mph80%30.57 "Hg1 mi
3:30 pm25 °FIce fog.5 mph86%30.57 "Hg2 mi
3:00 pm25 °FIce fog.6 mph86%30.57 "Hg2 mi
2:30 pm25 °FIce fog.5 mph86%30.57 "Hg1 mi
2:00 pm25 °FIce fog.6 mph80%30.57 "Hg2 mi
1:30 pm25 °FIce fog.7 mph80%30.57 "Hg1 mi
1:00 pm25 °FIce fog.8 mph86%30.57 "Hg2 mi
12:30 pm25 °FIce fog.7 mph86%30.60 "Hg2 mi
12:00 pm25 °FIce fog.7 mph86%30.60 "Hg2 mi
11:30 am25 °FIce fog.6 mph86%30.60 "Hg2 mi
11:00 am25 °FIce fog.No wind86%30.60 "Hg1 mi
10:30 am25 °FIce fog.No wind86%30.57 "Hg1 mi
10:00 am23 °FIce fog.No wind93%30.57 "Hg1 mi
9:30 am23 °FIce fog.No wind93%30.57 "Hg1 mi
9:00 am23 °FIce fog.No wind93%30.57 "Hg1 mi
8:30 am23 °FIce fog.No wind93%30.57 "Hg1 mi
8:00 am23 °FIce fog.No wind93%30.54 "Hg1 mi
Weather by CustomWeather, © 2017

See weather overviewHow to use our weather pages